PBO Station Position Time Series. Reference Frame : NAM14
Format Version,1.1.1
4-character ID,CN00
Station name,BarbudaWBHCR2012
Begin Date, 2012-08-22
End Date, 2023-06-26
Release Date, 2023-06-27
Reference position, 17.6685238585 North Latitude, -61.7855784520 East Longitude, -21.94980 meters elevation,
Date, North (mm), East (mm), Vertical (mm), North Std. Deviation (mm), East Std. Deviation (mm),              Vertical Std. Deviation (mm), Quality,
2012-08-22,0.00, 0.00, 0.00, 1.69, 1.99, 8.02, repro,
2012-08-23,0.82, 1.18, -21.13, 1.68, 1.91, 7.68, repro,
2012-08-24,-0.36, 0.65, -11.21, 1.69, 1.95, 7.83, repro,
2012-08-25,1.24, 2.35, -6.76, 1.64, 1.86, 7.60, repro,
2012-08-26,1.98, 1.49, -19.34, 1.66, 1.94, 7.70, repro,
2012-08-27,-1.68, 1.59, -18.77, 1.68, 1.91, 7.75, repro,
2012-08-28,-1.19, 0.07, -17.44, 1.65, 1.90, 7.63, repro,
2012-08-29,-0.78, 1.42, -23.46, 1.69, 1.95, 7.80, repro,
2012-08-30,2.17, 0.78, -6.52, 1.75, 1.90, 7.95, repro,
2012-08-31,-0.78, 3.08, -7.92, 1.68, 1.87, 7.67, repro,
2012-09-01,0.40, 0.81, -18.80, 1.71, 1.93, 8.01, repro,
2012-09-02,2.80, -0.16, -5.80, 1.72, 1.96, 8.02, repro,
2012-09-03,1.96, 0.68, -15.62, 1.68, 1.87, 7.63, repro,
2012-09-04,0.85, 0.46, -16.15, 1.64, 1.86, 7.53, repro,
2012-09-05,-1.32, 1.98, 2.47, 1.66, 1.88, 7.65, repro,
2012-09-06,-1.51, 3.96, -12.13, 1.65, 1.89, 7.61, repro,
2012-09-07,1.15, 3.08, -21.30, 1.73, 1.98, 8.08, repro,
2012-09-08,1.23, 1.25, -14.32, 1.76, 1.96, 8.21, repro,
2012-09-09,1.73, 1.19, -26.60, 1.67, 1.87, 7.60, repro,
2012-09-10,-1.63, 1.33, -15.75, 1.69, 1.93, 7.87, repro,
2012-09-11,0.10, 1.59, -19.08, 1.68, 1.91, 7.85, repro,
2012-09-12,3.65, -1.87, -16.04, 1.79, 2.05, 8.23, repro,
2012-09-13,0.96, 0.15, -26.01, 1.72, 2.04, 8.05, repro,
2012-09-14,1.26, -0.96, -28.19, 1.79, 2.06, 8.45, repro,
2012-09-15,-0.22, -0.13, -20.96, 1.71, 2.01, 7.99, repro,
2012-09-16,2.03, 0.49, -18.06, 1.73, 2.23, 8.53, repro,
2012-09-17,1.99, -0.24, -18.36, 1.64, 1.86, 7.63, repro,
2012-09-18,1.11, 1.32, -2.66, 1.69, 2.05, 7.84, repro,
2012-09-19,1.63, 3.71, -19.91, 1.66, 1.90, 7.76, repro,
2012-09-20,2.76, -0.98, -3.56, 1.74, 2.02, 8.17, repro,
2012-09-21,2.32, 1.63, 3.26, 1.66, 1.94, 7.81, repro,
2012-09-22,1.10, 2.38, -25.16, 1.68, 1.89, 7.79, repro,
2012-09-23,0.74, -1.82, -11.87, 1.69, 1.96, 7.92, repro,
2012-09-24,4.13, -1.65, -15.15, 1.83, 2.15, 8.38, repro,
2012-09-25,1.46, 1.10, -22.44, 1.79, 1.95, 8.22, repro,
2012-09-26,0.74, -1.00, -6.67, 1.68, 1.90, 7.79, repro,
2012-09-27,5.17, 1.74, -19.63, 1.74, 1.97, 7.97, repro,
2012-09-28,2.06, 2.49, -18.77, 1.69, 1.89, 7.75, repro,
2012-09-29,3.48, 1.04, -9.41, 1.65, 1.87, 7.60, repro,
2012-09-30,2.75, -0.48, -14.90, 1.65, 1.88, 7.61, repro,
2012-10-01,2.81, 0.30, -9.12, 1.72, 1.92, 7.85, repro,
2012-10-02,0.71, -0.85, -2.76, 1.78, 2.01, 8.30, repro,
2012-10-03,2.67, 1.14, -4.12, 1.70, 2.00, 7.94, repro,
2012-10-04,-0.25, 1.66, -6.95, 1.79, 2.10, 8.50, repro,
2012-10-05,1.05, 0.71, -8.76, 1.65, 1.86, 7.59, repro,
2012-10-06,1.75, 1.48, -22.82, 1.77, 2.05, 8.23, repro,
2012-10-07,2.85, 1.49, -15.44, 2.00, 2.31, 9.58, repro,
2012-10-08,2.46, -0.49, -22.53, 1.66, 1.87, 7.64, repro,
2012-10-09,0.16, -0.12, -3.25, 1.67, 1.87, 7.63, repro,
2012-10-10,3.29, -1.45, -8.64, 1.72, 1.98, 7.98, repro,
2012-10-11,1.51, 2.95, -10.49, 1.73, 1.96, 8.02, repro,
2012-10-12,2.10, 2.62, -14.37, 1.71, 1.96, 7.97, repro,
2012-10-13,4.22, -0.86, -8.82, 1.67, 1.91, 7.79, repro,
2012-10-14,3.04, 3.19, -15.99, 1.72, 1.91, 7.94, repro,
2012-10-15,2.70, -1.84, -19.91, 1.77, 2.06, 8.04, repro,
2012-10-16,4.09, -1.28, -11.38, 1.72, 1.98, 8.03, repro,
2012-10-17,2.62, -1.53, -14.67, 1.71, 1.93, 7.90, repro,
2012-10-18,3.16, 1.75, -2.37, 1.72, 1.91, 7.88, repro,
2012-10-19,5.77, 0.09, 13.97, 1.74, 2.05, 8.11, repro,
2012-10-20,3.24, 0.55, -7.10, 1.71, 1.91, 7.87, repro,
2012-10-21,1.53, 2.65, -10.83, 1.72, 1.92, 7.88, repro,
2012-10-22,2.68, 1.76, -6.86, 1.73, 2.03, 8.17, repro,
2012-10-23,1.05, -0.32, -22.61, 1.68, 1.89, 7.68, repro,
2012-10-24,2.13, 0.60, -16.11, 1.68, 1.88, 7.73, repro,
2012-10-25,2.48, 0.70, -9.92, 1.69, 1.91, 7.81, repro,
2012-10-26,3.65, 0.42, -12.30, 1.72, 1.93, 7.94, repro,
2012-10-27,2.72, 0.26, -14.61, 1.71, 1.96, 8.06, repro,
2012-10-28,3.65, -1.65, -13.17, 1.68, 1.91, 7.81, repro,
2012-10-29,2.22, 0.14, -15.13, 1.67, 1.88, 7.69, repro,
2012-10-30,3.76, 0.57, -16.60, 1.68, 1.88, 7.75, repro,
2012-10-31,1.57, 0.69, -10.45, 1.71, 1.98, 7.88, repro,
2012-11-01,2.64, 0.01, -16.95, 1.64, 1.89, 7.71, repro,
2012-11-02,2.27, 0.26, -7.77, 1.70, 1.96, 7.99, repro,
2012-11-03,2.04, 2.90, -20.91, 1.68, 1.90, 7.83, repro,
2012-11-04,1.51, 2.06, -19.40, 1.72, 1.99, 8.16, repro,
2012-11-05,1.44, 0.17, -7.95, 1.76, 2.01, 8.38, repro,
2012-11-06,4.39, 2.95, -14.91, 1.77, 2.14, 8.35, repro,
2012-11-07,1.44, 2.35, -13.33, 1.72, 2.00, 8.11, repro,
2012-11-08,1.33, 0.97, -24.18, 1.72, 1.97, 8.05, repro,
2012-11-09,-0.19, 0.96, -20.49, 1.73, 2.00, 8.19, repro,
2012-11-10,0.95, -0.15, -21.25, 1.86, 2.16, 8.51, repro,
2012-11-11,1.18, 2.04, -21.82, 1.73, 1.96, 8.06, repro,
2012-11-12,0.86, -0.19, -10.44, 1.86, 2.13, 8.69, repro,
2012-11-13,1.44, 1.96, -13.75, 1.83, 2.02, 8.23, repro,
2012-11-14,0.28, 2.04, -18.44, 1.64, 1.86, 7.62, repro,
2012-11-15,0.31, 3.63, -15.16, 1.71, 1.96, 8.07, repro,
2012-11-16,1.41, 1.31, -11.56, 1.72, 1.94, 8.04, repro,
2012-11-17,2.94, 1.95, -28.05, 1.71, 1.94, 8.00, repro,
2012-11-18,1.13, 1.94, -11.65, 1.74, 1.98, 8.14, repro,
2012-11-19,2.41, 1.40, -11.17, 1.84, 2.21, 8.54, repro,
2012-11-20,1.22, 3.04, -17.91, 1.71, 2.01, 8.07, repro,
2012-11-21,2.86, 1.19, -17.58, 1.66, 1.89, 7.79, repro,
2012-11-22,2.12, 3.76, -16.86, 1.72, 1.88, 7.87, repro,
2012-11-23,1.33, 0.24, -21.43, 1.74, 1.94, 8.01, repro,
2012-11-24,-0.89, -0.56, -28.73, 1.84, 2.04, 8.26, repro,
2012-11-25,0.52, 0.31, -14.38, 1.76, 2.02, 8.11, repro,
2012-11-26,3.14, 2.94, -19.08, 1.78, 2.04, 8.36, repro,
2012-11-27,3.17, 3.17, 3.97, 1.79, 2.13, 8.45, repro,
2012-11-28,1.63, 1.92, -12.19, 1.74, 2.04, 8.08, repro,
2012-11-29,0.20, 1.27, -17.54, 1.81, 1.95, 8.15, repro,
2012-11-30,1.91, 2.27, -9.63, 1.75, 1.97, 8.29, repro,
2012-12-01,0.91, -0.85, -10.70, 1.72, 1.90, 7.92, repro,
2012-12-02,1.54, 1.97, -30.84, 1.69, 1.88, 7.77, repro,
2012-12-03,2.55, 3.05, -19.19, 1.74, 1.92, 7.96, repro,
2012-12-04,2.73, 2.92, -21.75, 1.65, 1.88, 7.73, repro,
2012-12-05,1.60, 3.58, -10.45, 1.70, 1.93, 7.96, repro,
2012-12-06,-1.01, 4.79, -31.23, 1.77, 2.02, 8.15, repro,
2012-12-07,0.77, 0.63, -21.57, 1.74, 1.97, 8.02, repro,
2012-12-08,1.14, 1.79, -15.23, 1.64, 1.83, 7.63, repro,
2012-12-09,1.44, 0.52, -17.98, 1.71, 1.92, 7.94, repro,
2012-12-10,0.91, 2.45, -19.59, 1.68, 1.88, 7.80, repro,
2012-12-11,1.86, -1.90, -23.46, 1.69, 1.89, 7.92, repro,
2012-12-12,1.50, 2.95, -19.63, 1.68, 1.90, 7.86, repro,
2012-12-13,0.30, 1.05, -22.01, 1.70, 1.91, 7.94, repro,
2012-12-14,-0.34, 2.49, -19.87, 1.68, 1.88, 7.80, repro,
2012-12-15,1.55, -0.13, -27.12, 1.64, 1.83, 7.55, repro,
2012-12-16,1.08, -0.52, -9.32, 1.65, 1.86, 7.65, repro,
2012-12-17,0.56, 1.76, -19.70, 1.70, 1.91, 7.90, repro,
2012-12-18,0.25, 1.27, -18.30, 1.74, 1.90, 8.03, repro,
2012-12-19,-0.45, 0.75, -10.02, 1.65, 1.85, 7.65, repro,
2012-12-20,2.56, 3.44, -17.86, 1.84, 1.98, 8.75, repro,
2012-12-21,0.57, 1.11, -4.07, 1.76, 1.94, 7.92, repro,
2012-12-22,1.75, 1.02, -16.07, 1.64, 1.85, 7.56, repro,
2012-12-23,0.09, 1.81, -16.73, 1.68, 1.87, 7.73, repro,
2012-12-24,2.10, 0.59, -15.30, 1.74, 1.89, 7.92, repro,
2012-12-25,0.28, 1.60, -22.11, 1.72, 1.87, 7.72, repro,
2012-12-26,0.42, 0.31, -14.33, 1.69, 1.86, 7.66, repro,
2012-12-27,1.89, 1.98, -25.67, 1.87, 2.09, 8.74, repro,
2012-12-28,0.86, -1.46, -12.58, 1.64, 1.85, 7.52, repro,
2012-12-29,0.07, 0.97, -10.48, 1.68, 1.86, 7.73, repro,
2012-12-30,0.97, 1.51, -16.84, 1.71, 2.05, 8.12, repro,
2012-12-31,2.60, 0.48, -19.70, 1.70, 1.87, 7.78, repro,
2013-01-01,1.44, -0.20, -13.79, 1.71, 1.87, 7.78, repro,
2013-01-02,0.38, 1.30, -15.15, 1.79, 1.90, 8.33, repro,
2013-01-03,2.86, -0.05, -10.02, 1.68, 1.88, 7.67, repro,
2013-01-04,0.19, -0.09, -14.68, 1.69, 1.92, 7.88, repro,
2013-01-05,1.34, -0.55, -15.25, 1.70, 1.89, 7.75, repro,
2013-01-06,0.22, -1.49, -12.96, 1.70, 1.88, 7.87, repro,
2013-01-07,-0.38, 0.02, -17.78, 1.77, 1.91, 8.13, repro,
2013-01-08,3.04, -1.61, 1.78, 1.73, 1.98, 7.94, repro,
2013-01-09,2.64, -1.54, -26.96, 1.71, 1.91, 7.95, repro,
2013-01-10,1.19, -1.55, -14.36, 1.74, 1.96, 7.98, repro,
2013-01-11,-0.14, -2.28, -19.90, 1.76, 1.90, 8.20, repro,
2013-01-12,1.57, -2.66, -9.80, 1.82, 1.95, 8.46, repro,
2013-01-13,2.14, -1.32, -9.54, 1.72, 1.88, 7.82, repro,
2013-01-14,1.05, -0.17, -9.36, 1.69, 1.87, 7.88, repro,
2013-01-15,2.27, -0.86, -11.59, 1.72, 1.89, 7.92, repro,
2013-01-16,0.17, -0.05, -6.64, 1.70, 1.97, 7.84, repro,
2013-01-17,1.57, -0.89, -17.42, 1.77, 2.05, 8.13, repro,
2013-01-18,1.75, -0.86, -14.19, 1.68, 1.93, 7.76, repro,
2013-01-19,0.64, 0.25, -19.80, 1.64, 1.84, 7.50, repro,
2013-01-20,-0.68, 1.09, -12.17, 1.64, 1.87, 7.65, repro,
2013-01-21,-0.80, 0.86, -15.07, 1.63, 1.84, 7.58, repro,
2013-01-22,1.64, -2.12, -1.63, 1.77, 1.92, 8.19, repro,
2013-01-23,1.56, -1.43, -21.07, 1.76, 1.98, 8.06, repro,
2013-01-24,1.60, -1.51, -17.67, 1.76, 2.01, 7.99, repro,
2013-01-25,1.96, 0.70, -11.12, 1.69, 1.86, 7.71, repro,
2013-01-26,1.73, 0.50, -9.31, 1.74, 1.88, 8.14, repro,
2013-01-27,2.75, 0.10, -8.68, 1.64, 1.85, 7.52, repro,
2013-01-28,0.91, 0.88, -7.01, 1.69, 1.88, 7.75, repro,
2013-01-29,1.63, -0.01, -6.17, 1.68, 1.86, 7.66, repro,
2013-01-30,2.60, 0.08, -6.88, 1.64, 1.87, 7.56, repro,
2013-01-31,1.30, -0.96, -6.71, 1.66, 1.86, 7.60, repro,
2013-02-01,-0.45, -1.79, -13.30, 1.63, 1.84, 7.47, repro,
2013-02-02,1.01, -0.21, -12.86, 1.64, 1.83, 7.50, repro,
2013-02-03,-0.05, 0.19, -13.09, 1.64, 1.83, 7.48, repro,
2013-02-04,0.41, -1.12, -17.65, 1.62, 1.81, 7.40, repro,
2013-02-05,2.37, -1.37, -10.26, 1.75, 2.05, 7.99, repro,
2013-02-06,1.05, -0.16, -20.10, 1.74, 1.96, 7.92, repro,
2013-02-07,-0.51, -0.64, -17.74, 1.67, 1.87, 7.60, repro,
2013-02-08,-0.39, -0.02, -16.09, 1.68, 1.89, 7.75, repro,
2013-02-09,-0.05, -1.58, -12.97, 1.63, 1.83, 7.45, repro,
2013-02-10,0.09, -0.92, -14.96, 1.71, 1.96, 7.97, repro,
2013-02-11,0.79, -2.49, -5.69, 1.64, 1.84, 7.46, repro,
2013-02-12,0.69, -1.85, -23.82, 1.71, 1.94, 7.86, repro,
2013-02-13,0.10, 1.67, -9.80, 1.72, 1.92, 8.01, repro,
2013-02-14,-0.27, -0.20, -8.82, 1.68, 1.91, 7.71, repro,
2013-02-15,1.21, -0.38, -21.15, 1.63, 1.84, 7.48, repro,
2013-02-16,0.85, 0.22, -23.96, 1.65, 1.90, 7.67, repro,
2013-02-17,0.34, 2.19, -18.37, 1.63, 1.88, 7.55, repro,
2013-02-18,0.39, 0.85, -14.92, 1.64, 1.88, 7.55, repro,
2013-02-19,0.30, -3.10, -19.21, 1.67, 1.90, 7.71, repro,
2013-02-20,-0.28, 0.72, -16.66, 1.64, 1.86, 7.46, repro,
2013-02-21,-0.11, 0.84, -12.84, 1.73, 1.98, 7.81, repro,
2013-02-22,-0.04, 0.50, -9.45, 1.69, 1.92, 7.70, repro,
2013-02-23,0.62, 0.88, -3.20, 1.70, 1.91, 7.74, repro,
2013-02-24,-0.74, 2.81, -13.67, 1.65, 1.85, 7.65, repro,
2013-02-25,-0.17, 0.48, -15.87, 1.64, 1.84, 7.43, repro,
2013-02-26,1.42, -1.15, -9.67, 1.68, 1.89, 7.65, repro,
2013-02-27,0.42, 0.64, -13.05, 1.64, 1.82, 7.42, repro,
2013-02-28,0.03, -0.75, -16.84, 1.61, 1.79, 7.33, repro,
2013-03-01,0.78, 0.17, -18.72, 1.67, 1.86, 7.58, repro,
2013-03-02,-1.05, 0.70, -18.25, 1.67, 1.90, 7.65, repro,
2013-03-03,0.11, 0.06, -10.64, 1.68, 1.87, 7.59, repro,
2013-03-04,2.23, 1.17, -16.58, 1.67, 1.89, 7.60, repro,
2013-03-05,-0.09, 0.28, -14.37, 1.65, 1.83, 7.46, repro,
2013-03-06,0.52, 1.39, -16.85, 1.77, 2.00, 8.20, repro,
2013-03-07,-1.81, -1.84, -24.41, 1.70, 1.96, 8.08, repro,
2013-03-08,-0.61, 0.65, -23.88, 1.67, 1.85, 7.54, repro,
2013-03-09,1.87, -1.31, -10.51, 1.64, 1.84, 7.56, repro,
2013-03-10,0.73, -1.11, -11.19, 1.67, 1.86, 7.59, repro,
2013-03-11,0.97, 0.13, -18.66, 1.71, 1.87, 8.04, repro,
2013-03-12,1.33, -1.07, -10.57, 1.64, 1.79, 7.40, repro,
2013-03-13,-1.23, -0.25, -19.41, 1.71, 1.91, 7.78, repro,
2013-03-14,-0.22, 0.05, -13.37, 1.66, 1.83, 7.56, repro,
2013-03-15,0.91, -0.88, -8.01, 1.64, 1.78, 7.44, repro,
2013-03-16,1.65, 0.57, -12.11, 1.67, 1.82, 7.59, repro,
2013-03-17,0.42, -1.75, -17.98, 1.68, 1.88, 7.61, repro,
2013-03-18,1.06, -0.15, -16.84, 1.68, 1.98, 7.71, repro,
2013-03-19,-1.21, -0.63, -24.05, 1.63, 1.79, 7.36, repro,
2013-03-20,0.29, 0.34, -10.06, 1.65, 1.83, 7.49, repro,
2013-03-21,1.22, -0.13, -17.59, 1.62, 1.78, 7.39, repro,
2013-03-22,2.81, 0.82, -19.08, 1.63, 1.81, 7.33, repro,
2013-03-23,0.34, -0.18, -16.36, 1.62, 1.77, 7.30, repro,
2013-03-24,0.31, -0.85, -4.21, 1.65, 1.83, 7.51, repro,
2013-03-25,0.44, 0.24, -10.46, 1.64, 1.82, 7.44, repro,
2013-03-26,-0.20, 0.79, -22.80, 1.62, 1.78, 7.34, repro,
2013-03-27,2.48, -0.59, -14.72, 1.62, 1.79, 7.37, repro,
2013-03-28,0.76, 0.27, -21.71, 1.90, 2.25, 8.76, repro,
2013-03-29,2.83, -3.62, -12.14, 1.86, 2.06, 8.27, repro,
2013-03-30,-1.06, 0.08, -8.79, 1.74, 1.89, 7.72, repro,
2013-03-31,-0.14, -0.91, -12.26, 1.67, 1.82, 7.60, repro,
2013-04-01,0.90, -0.02, -10.92, 1.68, 1.83, 7.68, repro,
2013-04-02,0.20, 0.84, -19.16, 1.75, 1.90, 8.00, repro,
2013-04-03,1.20, 0.85, -25.10, 1.68, 1.85, 7.74, repro,
2013-04-04,1.84, 1.15, -13.65, 1.72, 1.85, 7.88, repro,
2013-04-05,0.94, -0.21, -13.30, 1.69, 1.88, 7.71, repro,
2013-04-06,2.04, 1.60, -13.67, 1.68, 1.88, 7.72, repro,
2013-04-07,0.14, 0.53, -11.22, 1.66, 1.82, 7.56, repro,
2013-04-08,3.31, -1.48, -7.74, 1.72, 1.84, 7.82, repro,
2013-04-09,3.58, 1.29, -11.38, 1.68, 1.86, 7.74, repro,
2013-04-10,1.15, 1.25, -2.70, 1.70, 1.86, 7.71, repro,
2013-04-11,1.48, 0.57, -6.35, 1.72, 1.87, 7.84, repro,
2013-04-12,0.89, -1.40, -9.53, 1.73, 1.92, 7.91, repro,
2013-04-13,1.39, 0.50, -3.03, 1.66, 1.84, 7.60, repro,
2013-04-14,2.19, -1.08, -8.51, 1.69, 1.89, 7.75, repro,
2013-04-15,3.47, -1.21, -10.89, 1.70, 1.85, 7.83, repro,
2013-04-16,1.11, 3.39, -6.87, 1.71, 1.97, 7.84, repro,
2013-04-17,3.78, 2.00, -6.27, 1.76, 1.94, 7.87, repro,
2013-04-18,-0.13, 3.68, -20.86, 1.71, 1.85, 7.86, repro,
2013-04-19,1.48, 2.35, -16.94, 1.71, 1.85, 7.87, repro,
2013-04-20,5.24, 2.60, -6.89, 1.73, 1.88, 7.72, repro,
2013-04-21,0.29, 3.10, -15.68, 1.67, 1.87, 7.64, repro,
2013-04-22,0.89, 1.65, -19.41, 1.70, 1.92, 7.83, repro,
2013-04-23,2.25, 1.15, -17.95, 1.74, 2.01, 7.98, repro,
2013-04-24,-0.99, 2.05, -16.01, 1.71, 1.89, 7.73, repro,
2013-04-25,-0.51, -0.02, -3.79, 1.83, 2.03, 8.48, repro,
2013-04-26,1.84, 2.98, 0.46, 1.69, 1.88, 7.68, repro,
2013-04-27,1.36, 2.97, -11.94, 1.69, 1.87, 7.66, repro,
2013-04-28,0.36, 3.20, -5.01, 1.70, 1.91, 7.81, repro,
2013-04-29,-1.90, 3.40, -8.77, 1.76, 1.97, 8.09, repro,
2013-04-30,1.67, 1.38, -10.33, 1.71, 1.91, 7.85, repro,
2013-05-01,2.75, 2.71, -11.71, 1.74, 2.03, 7.94, repro,
2013-05-02,-0.13, 1.69, -15.81, 1.76, 1.96, 8.15, repro,
2013-05-03,-0.09, 3.89, -10.35, 1.79, 2.04, 8.35, repro,
2013-05-04,1.02, 2.79, -11.22, 1.87, 2.01, 8.58, repro,
2013-05-05,6.78, -0.82, 0.26, 1.74, 1.90, 7.70, repro,
2013-05-06,0.38, 4.79, -7.35, 1.86, 1.98, 8.42, repro,
2013-05-07,1.08, 2.46, -5.50, 1.74, 1.97, 8.18, repro,
2013-05-08,1.13, 3.50, -11.92, 1.71, 1.89, 7.91, repro,
2013-05-09,-0.91, 3.43, -13.98, 1.78, 2.03, 8.01, repro,
2013-05-10,0.04, 2.67, -12.27, 1.71, 1.89, 7.63, repro,
2013-05-11,0.47, 7.88, -6.99, 1.69, 1.86, 7.62, repro,
2013-05-12,0.49, 5.16, -5.12, 1.68, 1.87, 7.57, repro,
2013-05-13,1.26, 2.61, -9.85, 1.74, 1.92, 7.95, repro,
2013-05-14,0.93, 3.72, -11.81, 1.71, 1.91, 7.80, repro,
2013-05-15,2.34, 3.53, -12.13, 1.68, 1.86, 7.59, repro,
2013-05-16,0.47, 2.90, 4.42, 1.72, 1.92, 7.77, repro,
2013-05-17,0.59, 3.71, -3.81, 1.70, 1.90, 7.65, repro,
2013-05-18,0.72, 0.98, -7.51, 1.68, 1.86, 7.56, repro,
2013-05-19,2.42, 4.78, 2.85, 1.71, 1.91, 7.68, repro,
2013-05-20,0.90, 2.35, -3.97, 1.70, 1.89, 7.60, repro,
2013-05-21,0.61, 5.10, 0.06, 1.74, 1.94, 7.84, repro,
2013-05-22,-0.84, 4.69, 1.29, 1.83, 1.98, 8.37, repro,
2013-05-23,-0.02, 5.84, -4.85, 1.73, 1.93, 7.94, repro,
2013-05-24,1.03, 4.89, -13.47, 1.71, 1.93, 7.82, repro,
2013-05-25,-0.06, 8.51, -10.48, 1.70, 1.89, 7.68, repro,
2013-05-26,0.50, 4.53, -2.44, 1.97, 2.15, 9.13, repro,
2013-05-27,3.65, 2.86, -3.96, 1.71, 1.90, 7.66, repro,
2013-05-28,0.57, 4.18, -14.00, 1.72, 1.87, 7.88, repro,
2013-05-29,-0.11, 5.74, -19.27, 1.68, 1.87, 7.64, repro,
2013-05-30,3.45, 2.54, -5.22, 1.80, 2.11, 8.35, repro,
2013-05-31,0.16, 6.99, -0.39, 1.69, 1.87, 7.66, repro,
2013-06-01,2.10, 6.96, -14.38, 1.74, 1.93, 7.74, repro,
2013-06-02,3.53, 6.41, -9.28, 1.74, 1.87, 7.81, repro,
2013-06-03,-0.38, 4.49, 8.40, 1.83, 2.01, 8.12, repro,
2013-06-04,0.29, 3.86, -17.47, 1.79, 2.03, 8.18, repro,
2013-06-05,-0.64, 5.72, -12.57, 1.72, 1.90, 7.72, repro,
2013-06-06,0.53, 5.64, -9.93, 1.70, 1.86, 7.59, repro,
2013-06-07,2.09, 4.28, -14.51, 1.78, 1.94, 8.06, repro,
2013-06-08,1.45, 2.79, -16.84, 1.74, 1.94, 7.93, repro,
2013-06-09,-0.25, 5.68, -11.05, 1.74, 1.88, 7.75, repro,
2013-06-10,-1.13, 5.30, -15.30, 1.75, 1.87, 7.83, repro,
2013-06-11,-1.32, 6.33, -11.92, 1.88, 2.07, 8.54, repro,
2013-06-12,-0.10, 4.83, -17.43, 1.74, 1.96, 7.74, repro,
2013-06-13,1.10, 5.51, -13.45, 1.75, 1.89, 7.77, repro,
2013-06-14,0.86, 5.38, -8.03, 1.74, 1.85, 7.75, repro,
2013-06-15,0.69, 6.24, -11.81, 1.70, 1.84, 7.51, repro,
2013-06-16,0.21, 5.80, -16.92, 1.71, 1.85, 7.53, repro,
2013-06-17,0.74, 5.10, -19.21, 1.70, 1.89, 7.61, repro,
2013-06-18,0.73, 3.36, -10.81, 1.86, 2.01, 7.99, repro,
2013-06-19,2.63, 6.90, -14.26, 1.82, 2.03, 8.22, repro,
2013-06-20,1.04, 4.57, -1.83, 1.75, 1.87, 7.75, repro,
2013-06-21,0.71, 4.72, -13.70, 1.76, 1.89, 7.86, repro,
2013-06-22,2.17, 5.20, -4.95, 1.80, 1.94, 8.18, repro,
2013-06-23,1.74, 3.68, 0.55, 1.69, 1.90, 7.59, repro,
2013-06-24,2.17, 4.63, -8.87, 1.74, 1.87, 7.70, repro,
2013-06-25,3.24, 4.40, -22.65, 1.78, 1.93, 7.88, repro,
2013-06-26,2.09, 4.94, -4.64, 1.70, 1.88, 7.53, repro,
2013-06-27,1.79, 2.58, -8.20, 1.68, 1.88, 7.45, repro,
2013-06-28,-0.59, 3.70, -2.97, 1.73, 1.88, 7.69, repro,
2013-06-29,2.42, 5.17, -8.06, 1.78, 1.93, 7.94, repro,
2013-06-30,3.12, 5.22, -3.28, 1.80, 1.96, 8.04, repro,
2013-07-01,0.05, 5.24, -3.15, 1.75, 1.90, 8.00, repro,
2013-07-02,0.91, 2.02, -9.27, 1.69, 1.90, 7.61, repro,
2013-07-03,0.68, 2.59, -13.49, 1.69, 1.90, 7.53, repro,
2013-07-04,0.45, 1.98, -8.56, 1.68, 1.89, 7.51, repro,
2013-07-05,1.19, 3.46, -7.85, 1.68, 1.89, 7.53, repro,
2013-07-06,0.50, 3.21, -2.89, 1.70, 1.91, 7.63, repro,
2013-07-07,-0.58, 1.81, -9.12, 1.76, 2.07, 7.90, repro,
2013-07-08,2.77, 2.29, -7.62, 1.67, 1.88, 7.46, repro,
2013-07-09,2.44, 3.50, -8.45, 1.85, 2.10, 8.22, repro,
2013-07-10,0.72, 5.12, -8.25, 1.67, 1.87, 7.48, repro,
2013-07-11,1.85, 4.67, -4.43, 1.72, 1.90, 7.75, repro,
2013-07-12,0.28, 1.93, -14.18, 1.66, 1.86, 7.47, repro,
2013-07-13,2.25, 7.74, -5.55, 1.74, 1.98, 7.77, repro,
2013-07-14,0.19, 5.76, -15.15, 1.70, 1.89, 7.67, repro,
2013-07-15,2.64, 2.77, -3.82, 1.70, 1.91, 7.73, repro,
2013-07-16,-0.49, 5.51, -5.91, 1.67, 1.89, 7.57, repro,
2013-07-17,1.04, 3.68, -16.89, 1.82, 2.10, 8.40, repro,
2013-07-18,1.20, 2.56, -7.83, 1.73, 2.01, 7.93, repro,
2013-07-19,-0.10, 2.99, -14.55, 1.68, 1.89, 7.61, repro,
2013-07-20,0.45, 2.64, -8.31, 1.67, 1.87, 7.49, repro,
2013-07-21,1.67, 4.14, -6.03, 1.66, 1.86, 7.47, repro,
2013-07-22,2.20, 3.78, -19.27, 1.68, 1.86, 7.55, repro,
2013-07-23,-0.17, 4.52, -3.85, 1.66, 1.86, 7.39, repro,
2013-07-24,0.82, 3.20, -0.10, 1.69, 1.92, 7.56, repro,
2013-07-25,1.49, 1.52, -8.00, 1.72, 1.98, 7.90, repro,
2013-07-26,1.37, 3.00, -2.39, 1.72, 1.92, 7.76, repro,
2013-07-27,0.17, 3.96, -4.16, 1.68, 1.89, 7.62, repro,
2013-07-28,1.71, 6.64, 1.72, 1.73, 1.96, 7.91, repro,
2013-07-29,0.52, 5.18, -0.89, 1.68, 1.93, 7.62, repro,
2013-07-30,0.56, 4.23, 4.61, 1.78, 2.04, 8.18, repro,
2013-07-31,4.26, 4.85, -5.92, 1.74, 2.00, 7.87, repro,
2013-08-01,4.25, 3.07, -6.74, 1.67, 1.90, 7.61, repro,
2013-08-02,-1.53, 4.35, -5.65, 1.67, 1.86, 7.47, repro,
2013-08-03,-1.73, 3.52, -21.75, 1.65, 1.86, 7.37, repro,
2013-08-04,-0.85, 1.94, -18.70, 1.69, 1.93, 7.54, repro,
2013-08-05,-2.58, 6.27, -13.42, 1.74, 1.94, 7.91, repro,
2013-08-06,0.91, 2.97, -13.70, 1.73, 1.91, 7.89, repro,
2013-08-07,1.12, 2.37, -8.56, 1.68, 1.88, 7.56, repro,
2013-08-08,1.10, 3.74, -1.83, 1.73, 1.93, 7.81, repro,
2013-08-09,2.24, 2.96, 1.87, 1.72, 1.99, 7.93, repro,
2013-08-10,-0.57, 2.83, -16.11, 1.74, 1.96, 7.98, repro,
2013-08-11,2.18, 3.54, -10.71, 1.68, 1.90, 7.62, repro,
2013-08-12,1.11, 4.53, -3.40, 1.70, 1.90, 7.72, repro,
2013-08-13,0.81, 3.39, -1.62, 1.73, 1.96, 7.94, repro,
2013-08-14,0.84, 4.94, -10.18, 1.68, 1.89, 7.66, repro,
2013-08-15,0.37, 4.86, -21.33, 1.86, 2.14, 8.55, repro,
2013-08-16,1.29, 3.84, -15.90, 1.66, 1.88, 7.54, repro,
2013-08-17,0.34, 1.33, -26.59, 1.88, 2.08, 8.45, repro,
2013-08-18,0.14, 3.51, -19.09, 1.68, 1.90, 7.62, repro,
2013-08-19,1.52, 5.41, -14.67, 1.69, 1.99, 7.83, repro,
2013-08-20,2.16, 5.64, -15.83, 1.70, 1.95, 7.86, repro,
2013-08-21,-0.73, 3.87, -9.59, 1.64, 1.86, 7.42, repro,
2013-08-22,1.61, 5.46, 0.37, 1.76, 2.07, 8.25, repro,
2013-08-23,-0.82, 4.54, -11.42, 1.75, 1.96, 7.85, repro,
2013-08-24,-1.69, 3.71, -9.20, 1.71, 1.98, 7.79, repro,
2013-08-25,-0.21, 2.63, -15.75, 1.73, 1.98, 7.79, repro,
2013-08-26,-0.82, 4.40, -2.85, 1.86, 2.09, 8.46, repro,
2013-08-27,0.78, 1.35, -13.80, 1.69, 1.94, 7.75, repro,
2013-08-28,0.62, 1.59, -10.78, 1.75, 1.95, 7.89, repro,
2013-08-29,3.72, 6.59, -10.60, 1.76, 2.05, 8.13, repro,
2013-08-30,2.57, 1.67, -3.18, 1.69, 1.96, 7.73, repro,
2013-08-31,1.62, 3.11, -18.71, 1.79, 2.11, 7.99, repro,
2013-09-01,2.29, 2.84, -22.95, 1.67, 1.88, 7.48, repro,
2013-09-02,0.15, 4.88, -16.09, 1.74, 1.99, 7.85, repro,
2013-09-03,0.92, 8.17, -17.70, 1.81, 2.11, 8.34, repro,
2013-09-04,2.98, 6.52, -5.44, 1.73, 2.02, 7.88, repro,
2013-09-05,0.51, 6.81, -22.23, 1.73, 1.92, 7.78, repro,
2013-09-06,2.39, 3.65, -18.63, 1.69, 1.91, 7.66, repro,
2013-09-07,0.72, 5.78, -17.99, 1.65, 1.88, 7.45, repro,
2013-09-08,3.23, 6.24, -9.65, 1.65, 1.87, 7.47, repro,
2013-09-09,2.41, 3.88, -0.81, 1.71, 1.92, 7.68, repro,
2013-09-10,3.62, 4.92, -7.04, 1.70, 1.92, 7.73, repro,
2013-09-11,0.81, 5.14, -13.07, 1.68, 1.89, 7.53, repro,
2013-09-12,1.21, 5.00, -16.57, 1.70, 1.94, 7.80, repro,
2013-09-13,2.66, 3.62, -15.83, 1.67, 1.90, 7.52, repro,
2013-09-14,1.86, 6.75, -13.24, 1.68, 1.93, 7.63, repro,
2013-09-15,2.88, 2.32, -0.24, 1.69, 1.93, 7.70, repro,
2013-09-16,3.51, 2.25, -9.60, 1.67, 1.88, 7.53, repro,
2013-09-17,2.41, 3.06, -15.70, 1.69, 1.90, 7.61, repro,
2013-09-18,0.75, 1.50, -12.65, 1.67, 1.94, 7.65, repro,
2013-09-19,2.42, 2.24, -6.24, 1.65, 1.87, 7.46, repro,
2013-09-20,3.97, 3.77, -9.24, 1.65, 1.87, 7.48, repro,
2013-09-21,4.64, 4.86, -11.97, 1.68, 1.88, 7.53, repro,
2013-09-22,1.86, 4.27, -14.21, 1.69, 1.89, 7.58, repro,
2013-09-23,3.62, 3.40, -6.43, 1.72, 1.93, 7.73, repro,
2013-09-24,2.55, 3.46, -8.60, 1.73, 1.98, 7.82, repro,
2013-09-25,3.25, 3.61, -4.10, 1.68, 1.90, 7.55, repro,
2013-09-26,6.07, 0.99, -5.90, 1.77, 1.99, 7.90, repro,
2013-09-27,2.87, 2.72, -13.11, 1.69, 1.90, 7.63, repro,
2013-09-28,4.00, 4.15, -18.09, 1.73, 1.96, 7.75, repro,
2013-09-29,1.79, 4.56, -9.51, 1.80, 1.91, 8.16, repro,
2013-09-30,2.42, 6.06, -5.18, 1.67, 1.88, 7.49, repro,
2013-10-01,2.01, 1.41, -15.28, 1.73, 1.98, 7.81, repro,
2013-10-02,3.70, 1.83, -0.87, 1.84, 2.19, 8.58, repro,
2013-10-03,2.33, 3.92, -12.46, 1.69, 1.93, 7.81, repro,
2013-10-04,0.58, 1.33, -9.67, 1.69, 1.90, 7.63, repro,
2013-10-05,0.91, 3.56, -8.25, 1.72, 1.99, 7.79, repro,
2013-10-06,3.81, 2.99, 4.42, 1.87, 2.11, 8.37, repro,
2013-10-07,2.32, 4.53, -12.67, 1.71, 1.98, 7.73, repro,
2013-10-08,2.74, 4.32, -10.39, 1.66, 1.87, 7.53, repro,
2013-10-09,2.72, 3.43, -4.97, 1.66, 1.87, 7.54, repro,
2013-10-10,1.66, 1.10, -16.30, 1.71, 1.94, 7.83, repro,
2013-10-11,2.52, 5.65, -4.82, 1.73, 2.04, 8.08, repro,
2013-10-12,2.71, 3.49, -29.04, 1.73, 1.93, 7.86, repro,
2013-10-13,2.19, 0.49, -14.71, 1.75, 2.00, 8.03, repro,
2013-10-14,0.77, 2.97, -13.27, 1.69, 1.90, 7.61, repro,
2013-10-15,2.53, 3.51, -14.78, 1.78, 2.04, 8.00, repro,